www.pogodaiklimat.ru

ПОГОДА в Лонг-Биче, CA

  • Прогноз погоды в Лонг-Биче
  • Монитор погоды в Лонг-Биче
  • Климат в Лонг-Биче

АРХИВ ПОГОДЫ в Лонг-Биче

Время (UTC), дата Ветер
(напр.,м/с)
 
Видим.   Явления Облачность Т
(С)
Тd
(С)
f
(%)
Тe
(С)
Тes
(С)
Комфортность

P
(гПа)

Po
(гПа)
Тmin
(С)
Tmax
(С)
R
(мм)
SD
(см)
08:53 21.05 ЮЗ  16 км    8/8 600 м  +15.6  +10.6  72  +15  +15    1014.4  1012.4         
09:13 21.05 Ю  16 км    10/10 600 м  +15.6  +10.6  72  +15  +15      1012.1         
09:53 21.05 ЮВ  16 км    10/10 420 м  +15.0  +11.7  81  +14  +14    1013.9  1011.7         
10:08 21.05 В  16 км    10/10 450 м  +15.0  +11.1  77  +14  +14      1011.7         
10:53 21.05 В  16 км    10/10 1110 м  +15.0  +10.6  75  +14  +14    1013.6  1011.7  +15.0  +15.6     
11:53 21.05 ЮВ  13 км  слабый дождь  10/10 660 м  +14.4  +10.6  78  +13  +13    1013.7  1011.7         
12:15 21.05 ЮВ  16 км    10/10 540 м  +14.4  +10.6  78  +13  +13      1011.4         
12:53 21.05 ЮВ  16 км    8/8 1290 м  +14.4  +10.0  75  +14  +14    1013.8  1011.7         
13:32 21.05 Ю  16 км    10/10 510 м  +15.0  +10.0  72  +14  +14      1011.4         
13:53 21.05 Ю  16 км    8/8 510 м  +15.0  +10.6  75  +14  +14    1013.3  1011.4         
14:53 21.05 Ю  16 км    10/10 690 м  +16.1  +10.0  67  +16  +16    1013.3  1011.4         
15:53 21.05 ЮЗ  16 км    5/5 690 м  +17.2  +10.0  63  +17  +20    1013.1  1011.0         
16:53 21.05 ЮЗ  16 км    8/8 1170 м  +17.8  +9.4  58  +18  +20    1012.6  1010.7  +14.4  +18.3     
17:53 21.05 ЮЗ  5
{9} 
16 км    5/5 1200 м  +17.8  +8.3  54  +17  +20    1012.2  1010.0         
18:53 21.05 З  8
{12} 
16 км    ясно  +19.4  +8.3  49  +19  +22    1011.6  1009.7         
19:53 21.05 З  7
{11} 
16 км    2/2 1500 м  +20.0  +7.2  43  +20  +23    1011.2  1009.0         
20:53 21.05 З  9
{12} 
16 км    5/5 1110 м  +20.0  +6.7  42  +20  +20    1010.7  1008.7         
21:53 21.05 З  6
{11} 
16 км    5/5 1170 м  +20.0  +7.2  43  +20  +23    1010.2  1008.0         
22:53 21.05 З  7
{9} 
16 км    ясно  +19.4  +7.8  47  +19  +21    1008.9  1007.0  +17.2  +20.6     
23:53 21.05 З  8
{13} 
16 км    ясно  +18.3  +8.3  52  +18  +18    1008.4  1006.3         
00:53 22.05 З  7
{13} 
16 км    ясно  +17.2  +8.9  58  +16  +16    1007.9  1006.0         
01:53 22.05 З  6
{9} 
16 км    ясно  +16.1  +9.4  64  +15  +15    1007.8  1005.6         
02:53 22.05 З  16 км    ясно  +16.1  +8.9  62  +15  +15    1008.0  1006.0         
03:53 22.05 З  16 км    ясно  +15.6  +8.9  64  +15  +15    1008.1  1006.0         
04:53 22.05 З  16 км    ясно  +15.6  +8.9  64  +15  +15    1008.0  1006.0  +15.6  +19.4     
05:53 22.05 СЗ  16 км    8/5 1950 м
[средняя] 
+15.0  +8.9  67  +15  +15    1007.8  1005.6         
06:53 22.05 СЗ  16 км    ясно  +14.4  +9.4  72  +14  +14    1007.3  1005.3         
07:53 22.05 З  16 км    ясно  +14.4  +8.9  70  +14  +14    1006.8  1004.6         
08:53 22.05   16 км    ясно  +13.9  +8.9  72  +14  +14    1006.5  1004.3         
09:53 22.05 СЗ  16 км    ясно  +13.9  +8.9  72  +13  +13    1006.2  1004.3         
10:53 22.05 З  16 км    8/8 1650 м  +13.9  +9.4  74  +13  +13    1006.0  1004.0  +13.9  +15.6     
11:53 22.05 З  16 км    2/2 1950 м  +13.9  +8.3  69  +12  +12    1005.9  1004.0         
12:53 22.05 З  16 км    5/5 1290 м  +13.9  +8.3  69  +12  +12    1006.4  1004.3         
13:53 22.05 З  16 км    ясно  +15.6  +8.3  62  +16  +17    1006.6  1004.6         
14:53 22.05 нст  16 км    5/5 1020 м  +17.8  +6.7  48  +18  +20    1006.6  1004.6         
15:53 22.05 нст  16 км    ясно  +18.3  +6.7  47  +19  +28    1006.4  1004.3         
16:53 22.05 З  16 км    2/2 1800 м  +19.4  +4.4  37  +20  +27    1006.4  1004.3  +13.9  +19.4     
17:53 22.05 Ю  16 км    10/8 1800 м
[средняя] 
+18.9  +5.0  40  +19  +19    1006.3  1004.3         
18:53 22.05 Ю  16 км    2/2 1500 м  +20.0  +3.3  33  +20  +26    1006.2  1004.3         
18:58 22.05 Ю  16 км    2/2 1500 м  +20.0  +3.3  33  +20  +28      1004.3         
19:53 22.05 З  7
{9} 
16 км    2/2 1500 м  +21.1  +5.6  36  +22  +24  комфорт  1006.2  1004.0         
20:28 22.05 З  6
{11} 
16 км    8/0 2550 м
[средняя] 
+21.1  +5.0  35  +22  +24  комфорт    1004.3         
20:53 22.05 З  16 км    8/0 2550 м
[средняя] 
+20.0  +5.6  39  +20  +21    1006.7  1004.6         
21:53 22.05 СЗ  16 км  дождь  8/0 2550 м
[средняя] 
+17.8  +8.3  54  +17  +17    1007.5  1005.3         
22:53 22.05 В  16 км    8/0 3000 м
[средняя] 
+17.2  +10.0  63  +17  +21    1007.3  1005.3  +15.6  +21.7     
23:53 22.05 В  16 км    2/0 2550 м
[средняя] 
+17.8  +7.2  50  +18  +22    1007.3  1005.3         
00:53 23.05 В  16 км    2/2 1050 м  +17.2  +8.3  56  +17  +19    1007.5  1005.3         
01:53 23.05 Ю  16 км    ясно  +16.1  +8.3  60  +16  +17    1008.5  1006.3         

 

Местоположение метеостанции Long Beach Airport: широта 33.8117 долгота -118.1464 высота над уровнем моря 17 м.

В архиве по умолчанию представлена погода в Лонг-Биче за последние 1-2 суток. Обновление информации о фактической погоде в базе происходит ежечасно! Архивные данные за месяц целиком и за предыдущие месяцы Вы можете получить, выбрав интересующий диапазон дат из раскрывающегося списка и нажав кнопку "Ввод!".

Внимание! Архив погоды МЕТАР в базе сайта хранится не более 60 дней. Нет смысла пытаться выбрать более раннюю дату.

Внимание! Время в таблицах - всемирное. Для получения местного времени необходимо прибавить поправку, которая в Лонг-Биче равна -8 ч.

Ветер - указаны скорость ветра в м/с и направление, откуда дует ветер: С - северный, СВ - северо-восточный, В - восточный, ЮВ - юго-восточный, Ю - южный, ЮЗ - юго-западный, З - западный, СЗ - северо-западный.
Видимость - горизонтальная дальность видимости в метрах или километрах. При видимости от 1 до 10 км при отсутствии осадков обычно наблюдается дымка, при ухудшении видимости до 1 км и менее - туман. В сухую погоду видимость может ухудшаться дымом, пылью или мглою.
Атмосферные явления - указаны явления, наблюдавшиеся в указанный момент времени.
Облачность - указаны через наклонную черту верхняя и нижняя облачность в баллах и высота нижней границы облаков в метрах. Внимание: облачность, как и прочие метеорологические величины в США измеряются автоматическими метеостанциями. Указанные значения в баллах носят условный характер и показывают процент времени, в течение которого, в среднем, лазерный луч высотомера отражался от облаков обратно.
T - Температура воздуха - температура, измеренная на высоте 2 м над землей.
Td - Температура точки росы - температура, при понижении до которой содержащийся в воздухе водяной пар достигнет насыщения.
f - Относительная влажность воздуха - влажноcть воздуха, измеренная на высоте 2 м над землей.
Te - Эффективная температура - температура, которую ощущает одетый по сезону человек в тени. Характеристика душности погоды. При расчете учитывается влияние влажности воздуха и скорости ветра на теплоощущения человека.
Tes - Эффективная температура на солнце - температура, которую ощущает человек, с поправкой на солнечный нагрев. Характеристика знойности погоды. Зависит от высоты солнца над горизонтом, облачности и скорости ветра. Ночью, в пасмурную погоду, а также при ветре 12 м/с и более поправка равна нулю.
P - Атмосферное давление - приведенное к уровню моря атмосферное давление.
Po - Атмосферное давление - измеренное на уровне метеостанции атмосферное давление.
Tmin - Минимальная температура - минимум температуры воздуха на высоте 2 м над землей.
Tmax - Максимальная температура - максимум температуры воздуха на высоте 2 м над землей.
R - Количество осадков - Количество выпавших осадков за 3 или 6 часов, мм.
SD - Снежный покров - Высота снежного покрова, см.